Weather in Khasanovo

Russia / Mari El Republic     56°51′08″N   49°27′30″E
temp.,
°C
wind,
m/s
gust,
m/s
humid.,
%
clouds,
%
prec.,
mm/h
press.,
hPa
HPBL,
m
1 march, mon
mon100:00−21nnw349940 0.0 101753
03:00−22n349831 0.0 101951
06:00−22nnw339963 0.0 102039
09:00−19nw129632 0.0 102189
12:00−14wnw128837 0.0 1020244
15:00−12w249051 0.0 1019330
18:00−13ssw479737 0.0 1016128
21:00−12ssw5119565 0.0 1014292
2 march, tue
tue200:00−9sw61393100 0.1 1009464
03:00−6sw71494100 1.5 1005598
06:00−4sw71495100 1.3 1000637
09:000sw61297100 2.3 997603
12:000w61099100 1.1 995626
15:000w61098100 2.0 995675
18:00−1wnw61291100 1.1 995599
21:00−4w4109585 1.1 997270
3 march, wed
wed300:00−3nw6119390 0.9 997483
03:00−6wnw499592 1.1 998247
06:00−6w489598 0.1 998279
09:00−5wnw599399 0.3 999504
12:00−4nw6994100 0.4 1000746
15:00−5nw71188100 0.6 1002746
18:00−6nw61088100 0.1 1003750
21:00−8wnw4109399 0.1 1005357
4 march, thu
thu400:00−10w4109584 0.0 1004225
03:00−10wsw499591 0.1 1004217
06:00−10wsw499678 0.1 1003182
09:00−6sw5109384 0.1 1001457
12:00−3ssw61192100 0.1 998725
15:00−2sw71293100 0.5 996927
18:00−1sw71396100 0.6 992818
21:00−1wsw81495100 2.1 9901025
5 march, fri
fri500:00−1wsw81593100 0.4 990973
03:00−5w7148795 0.7 993799
06:00−8w7159093 0.0 996568
09:00−9wnw6119097 0.1 1000551
12:00−8wnw5889100 0.0 1003512
15:00−8wnw488886 0.0 1006570
18:00−14wnw339543 0.0 100837
21:00−16wnw239622 0.0 101020